Probability
0 0 0 0 0 0 0 0 0 0 0 0 0 0 0 0 0 0 0 0 0 0 0 0 0 0 0 0 0 0 1 2 1 0 0 0 0 0 0 0 0 0 0 0
0 0 0 0 0 0 0 0 0 0 0 0 0 0 0 0 0 0 0 0 0 0 0 0 0 0 0 0 0 0 1 2 2 1 0 0 0 0 0 0 0 0 0 0
0 0 0 0 0 0 0 0 0 0 0 0 0 0 0 0 0 0 0 0 0 0 0 0 0 0 0 0 0 0 1 2 2 1 0 0 0 0 0 0 0 0 0 0
0 0 0 0 0 0 0 0 0 0 0 0 0 0 0 0 0 0 0 0 0 0 0 0 0 0 0 0 0 0 1 1 1 0 0 0 0 0 0 0 0 0 0 0
0 0 0 0 0 0 0 0 0 0 0 0 0 0 0 0 0 0 0 0 0 0 0 0 0 0 0 0 0 0 0 0 0 0 0 0 0 0 0 0 0 0 0 0
0 0 0 0 0 0 0 0 0 0 0 0 0 0 0 0 0 0 0 0 0 0 0 0 0 0 0 0 0 0 0 0 0 0 0 0 0 0 0 0 0 0 0 0
0 0 0 0 0 0 0 0 0 0 0 0 0 0 0 0 0 0 0 0 0 0 0 0 0 0 0 0 0 0 0 0 0 0 0 0 0 0 0 0 0 0 0 0
0 0 0 0 0 0 0 0 0 0 0 0 0 0 0 0 0 0 0 0 0 0 0 0 0 0 0 0 0 0 0 0 0 0 0 0 0 0 0 0 0 0 0 0
0 0 0 0 0 0 0 0 0 0 0 0 0 0 0 0 0 0 0 0 0 0 0 0 0 0 0 0 0 0 0 0 0 0 0 0 0 0 0 0 0 0 0 0
0 0 0 0 0 0 0 0 0 0 0 0 0 0 0 0 0 0 0 0 0 0 0 0 0 0 0 0 0 0 0 0 0 0 0 0 0 0 0 0 0 0 0 0
0 0 0 0 0 0 0 0 0 0 0 0 0 0 0 0 0 0 0 0 0 0 0 0 0 0 0 0 0 0 0 0 0 0 0 0 0 0 0 0 0 0 0 0
0 0 0 0 0 0 0 0 0 0 0 0 0 0 0 0 0 0 0 0 0 0 0 0 0 0 0 0 0 0 0 0 0 0 0 0 0 0 0 0 0 0 0 0
0 0 0 0 0 0 0 0 0 0 0 0 0 0 0 0 0 0 0 0 0 0 0 0 0 0 0 0 0 0 0 0 0 0 0 0 0 0 0 0 0 0 0 0
0 0 0 0 0 0 0 0 0 0 0 0 0 0 0 0 0 0 0 0 0 0 0 0 0 0 0 0 0 0 0 0 0 0 0 0 0 0 0 0 0 0 0 0
0 0 0 0 0 0 0 0 0 0 0 0 0 0 0 0 0 0 0 0 0 0 0 0 0 0 0 0 0 0 0 0 0 0 0 0 0 0 0 0 0 0 0 0
0 0 0 0 0 0 0 0 0 0 0 0 0 0 0 0 0 0 0 0 0 0 0 0 0 0 0 0 0 0 0 0 0 0 0 0 0 0 0 0 0 0 0 0
0 0 0 0 0 0 0 0 0 0 0 0 0 0 0 0 0 0 0 0 0 0 0 0 0 0 0 0 0 0 0 0 0 0 0 0 0 0 0 0 0 0 0 0
0 0 0 0 0 0 0 0 0 0 0 0 0 0 0 0 0 0 0 0 0 0 0 0 0 0 0 0 0 0 0 0 0 0 0 0 0 0 0 0 0 0 0 0
0 0 0 0 0 0 0 0 0 0 0 0 0 0 0 0 0 0 0 0 0 0 0 0 0 0 0 0 0 0 0 0 0 0 0 0 0 0 0 0 0 0 0 0
0 0 0 0 0 0 0 0 0 0 0 0 0 0 0 0 0 0 0 0 0 0 0 0 0 0 0 0 0 0 0 0 0 0 0 0 0 0 0 0 0 0 0 0
0 0 0 0 0 0 0 0 0 0 0 0 0 0 0 0 0 0 0 0 0 0 0 0 0 0 0 0 0 0 0 0 0 0 0 0 0 0 0 0 0 0 0 0
0 0 0 0 0 0 0 0 0 0 0 0 0 0 0 0 0 0 0 0 0 0 0 0 0 0 0 0 0 0 0 0 0 0 0 0 0 0 0 0 0 0 0 0
0 0 0 0 0 0 0 0 0 0 0 0 0 0 0 0 0 0 0 0 0 0 0 0 0 0 0 0 0 0 0 0 0 0 0 0 0 0 0 0 0 0 0 0
0 0 0 0 0 0 0 0 0 0 0 0 0 0 0 0 0 0 0 0 0 0 0 0 0 0 0 0 0 0 0 0 0 0 0 0 0 0 0 0 0 0 0 0
0 0 0 0 0 0 0 0 0 0 0 0 0 0 0 0 0 0 0 0 0 0 0 0 0 0 0 0 0 0 0 0 0 0 0 0 0 0 0 0 0 0 0 0
0 0 0 0 0 0 0 0 0 0 0 0 0 0 0 0 0 0 0 0 0 0 0 0 0 0 0 0 0 0 0 0 0 0 0 0 0 0 0 0 0 0 0 0
0 0 0 0 0 0 0 0 0 0 0 0 0 0 0 0 0 0 0 0 0 0 0 0 0 0 0 0 0 0 0 0 0 0 0 0 0 0 0 0 0 0 0 0
Wind_Speed
5 4 4 6 7 9 10 9 8 7 8 8 5 5 5 4 5 5 5 5 6 6 6 5 5 5 5 6 6 6 5 5 6 6 6 6 6 6 6 6 6 6 6 7
4 3 4 7 9 11 11 11 11 11 11 6 5 3 4 4 4 5 6 6 6 6 6 6 6 6 6 7 6 6 6 6 6 6 5 5 5 5 5 5 6 5 6 5
3 2 3 8 9 11 8 8 9 10 7 3 4 5 5 4 5 6 6 7 7 6 6 6 7 7 7 7 7 6 6 6 6 5 5 5 5 5 5 5 5 5 5 5
2 2 7 2 1 5 8 7 8 6 5 5 5 6 6 5 5 6 6 6 6 6 7 7 7 7 7 7 6 6 6 6 6 6 5 5 5 5 5 4 4 4 4 4
3 4 8 4 3 4 5 5 6 8 7 6 4 5 4 3 4 6 6 6 6 6 6 6 6 6 7 7 6 6 6 6 6 6 6 6 5 5 4 4 5 4 4 4
4 4 6 1 3 2 3 5 3 6 7 4 2 4 3 1 4 5 5 5 5 5 6 6 6 6 6 6 6 6 6 6 6 6 6 6 5 5 4 4 4 4 3 3
6 6 7 0 4 5 4 2 1 4 5 4 5 5 4 3 4 4 5 5 5 5 5 6 6 6 6 6 6 6 6 6 6 5 5 5 5 4 3 2 2 3 2 2
6 7 7 5 7 6 2 1 1 2 3 5 5 4 4 4 4 4 4 5 5 5 5 5 5 6 7 7 7 6 5 5 5 5 4 4 3 3 2 1 1 1 1 1
8 6 1 6 5 3 1 2 2 3 4 4 5 5 5 5 5 5 5 5 4 5 6 6 5 5 7 7 6 5 5 5 4 4 4 3 2 2 1 1 1 1 1 1
6 7 5 5 6 5 4 4 4 4 4 4 6 6 6 5 5 5 5 5 4 5 6 6 6 6 6 6 6 5 5 4 4 3 3 2 2 2 1 1 1 1 1 1
7 6 5 6 7 6 5 4 4 5 5 5 5 6 6 5 5 5 5 4 4 5 5 6 6 6 6 6 5 5 4 4 3 3 2 2 2 1 1 1 1 1 1 1
6 5 5 3 3 3 4 5 5 5 5 5 6 6 6 5 5 5 5 4 4 5 6 6 6 6 6 5 5 4 3 3 2 2 2 2 1 1 2 1 1 1 1 1
5 2 3 3 2 3 4 4 4 5 5 5 5 5 5 5 5 4 4 4 5 5 6 6 6 6 6 5 4 3 3 3 2 2 2 2 1 1 1 1 2 2 2 2
5 3 4 4 3 3 3 3 2 3 4 4 4 4 4 4 4 4 5 5 5 5 5 6 6 6 6 5 4 4 3 3 2 2 2 1 1 1 0 0 0 1 1 2
7 6 5 3 3 2 2 1 2 3 3 3 3 3 3 4 5 5 5 4 4 4 5 5 6 6 5 4 4 3 3 2 2 2 1 1 1 0 0 0 0 0 1 1
5 5 5 5 5 5 3 4 4 4 4 4 4 4 4 4 4 4 4 3 4 5 5 5 6 6 4 3 3 3 2 3 2 1 1 1 0 0 0 0 0 0 0 0
5 6 6 6 6 6 6 6 5 5 4 5 5 4 3 3 4 4 4 4 4 5 5 5 6 5 4 3 3 2 2 2 2 2 1 1 0 0 0 0 0 0 0 0
7 7 6 6 6 6 6 6 5 5 5 5 4 3 3 3 4 4 4 4 4 4 4 5 5 4 3 3 3 2 2 1 1 1 1 1 1 0 0 0 0 0 0 1
7 7 7 6 6 6 6 5 5 5 4 4 4 4 4 4 4 4 3 3 4 5 5 4 5 3 3 2 2 2 1 1 1 1 1 1 0 0 0 1 1 0 0 0
6 5 6 5 5 5 5 5 4 4 4 4 4 3 4 3 3 3 3 4 4 4 4 4 3 3 2 2 1 1 1 1 1 1 0 0 0 0 0 0 1 1 1 1
5 5 5 5 4 5 5 4 4 4 4 4 4 4 4 3 3 3 3 4 3 3 3 3 2 2 2 1 1 1 1 1 1 1 1 0 0 0 0 0 0 0 1 1
4 4 4 4 4 4 3 3 4 4 4 4 4 4 3 3 3 3 4 4 3 3 2 2 2 2 1 1 1 1 0 0 1 1 1 1 1 0 1 0 1 1 1 1
4 4 4 4 4 3 3 3 4 4 4 4 4 4 4 4 3 3 3 2 2 3 2 2 2 1 0 1 0 1 1 1 1 1 1 1 1 1 1 1 1 1 1 1
3 3 3 3 2 3 4 4 3 3 3 4 4 4 4 3 3 3 3 3 3 3 2 2 2 1 1 1 1 1 1 1 1 1 1 1 1 1 1 1 1 1 1 1
3 3 3 3 4 4 4 3 2 3 3 3 3 4 3 3 3 2 2 2 3 2 2 2 1 1 1 1 1 1 1 1 1 1 1 1 1 1 1 1 1 1 1 1
3 3 3 4 4 3 3 3 3 3 3 3 3 3 2 2 2 2 2 2 2 2 1 1 1 1 1 1 1 1 1 1 1 1 1 1 1 1 1 1 1 1 1 1
2 2 2 2 3 3 3 3 4 4 4 3 3 3 2 2 2 2 2 2 1 1 1 1 1 1 1 1 1 1 1 1 1 1 1 1 1 1 1 1 1 1 1 1
Wind_Direction
270 276 241 237 227 212 218 229 238 251 259 275 284 275 279 288 297 304 312 317 318 318 315 311 306 305 306 307 306 304 301 295 286 283 278 273 272 271 271 267 265 264 264 267
259 255 249 255 245 229 232 238 245 263 272 282 296 289 280 281 283 290 300 306 309 311 311 310 308 308 307 305 305 302 297 293 293 287 283 279 278 275 271 268 265 263 262 264
251 276 268 254 234 215 213 218 222 239 250 271 281 273 271 271 273 281 293 300 304 306 305 307 307 306 303 302 302 296 292 291 292 289 285 282 280 275 271 268 267 266 268 271
262 258 241 258 101 204 210 229 225 242 257 254 268 285 279 263 266 279 290 295 299 304 306 308 308 306 303 301 296 290 288 290 293 290 284 280 276 272 273 271 267 264 266 268
213 247 269 261 201 188 202 243 219 228 248 265 296 290 258 240 266 279 284 287 292 299 302 304 304 304 302 300 297 292 289 290 290 286 282 280 274 275 273 273 271 265 262 261
206 233 247 254 133 163 186 252 206 215 233 245 247 269 287 316 290 288 290 290 296 301 302 302 305 305 298 297 296 292 292 292 289 285 277 275 273 270 268 265 267 273 270 261
220 240 262 54 139 166 207 270 141 214 226 214 225 263 311 306 292 289 290 292 298 298 297 301 305 301 295 296 296 295 295 295 292 288 282 278 275 269 267 268 274 278 280 277
196 222 245 140 155 199 252 41 189 238 241 242 254 277 290 288 287 289 290 292 295 295 298 303 304 300 297 299 302 302 296 296 295 293 290 284 279 280 281 274 260 275 289 302
206 225 356 173 205 235 254 235 260 272 274 262 264 269 281 286 286 285 286 289 292 293 298 304 306 300 296 302 309 307 301 298 299 296 292 291 283 274 265 259 246 243 256 262
243 254 247 234 245 252 251 256 271 274 273 261 261 266 273 279 283 285 286 286 290 294 298 303 308 302 297 305 308 303 302 306 307 303 307 308 294 281 258 232 228 232 240 247
247 264 274 250 237 243 252 260 272 276 269 259 258 265 267 272 277 280 283 284 285 287 291 299 306 305 307 307 304 299 302 307 309 310 306 304 305 308 275 256 256 253 249 241
232 224 221 246 226 227 237 248 251 259 267 263 256 260 267 271 275 277 279 285 287 289 293 300 305 305 307 306 301 297 304 306 306 306 303 304 313 340 15 18 15 343 351 335
254 267 255 276 263 249 248 260 259 251 254 263 262 259 264 273 277 278 283 286 287 290 294 299 302 302 304 303 296 289 290 296 297 295 296 295 288 281 2 35 42 50 65 59
237 234 252 250 256 254 259 267 269 270 269 268 269 269 268 273 279 281 284 288 292 294 297 299 301 301 304 300 293 289 288 292 293 291 296 288 273 261 235 166 108 54 48 66
226 226 234 252 261 256 254 253 259 270 278 281 278 272 266 267 272 280 288 294 294 294 296 298 299 301 307 299 294 292 292 293 289 292 300 294 281 284 210 168 120 57 38 69
218 223 230 241 251 255 246 240 247 258 263 266 268 268 267 269 275 281 285 285 286 289 293 293 293 301 305 296 289 286 287 305 311 297 295 293 244 195 193 184 188 181 81 20
204 226 229 237 242 246 243 241 243 250 253 254 259 265 266 268 275 282 286 283 279 283 289 289 294 301 296 288 279 281 285 284 291 296 293 282 257 216 215 204 202 226 335 57
228 235 230 233 237 242 246 245 242 242 242 245 250 249 249 252 264 277 285 289 289 293 294 294 297 296 292 288 281 280 278 280 271 272 276 273 268 255 225 209 198 195 57 89
233 236 238 239 239 237 239 240 240 239 238 232 229 238 246 253 261 272 281 285 287 292 299 297 297 293 290 291 292 273 269 271 274 283 286 272 263 231 215 218 214 199 176 161
239 240 238 239 235 229 232 235 233 234 232 223 225 237 248 254 257 262 266 267 269 281 296 294 285 284 286 284 284 272 276 280 277 279 280 246 227 238 235 222 203 198 200 198
239 236 230 229 231 231 228 224 220 224 224 217 220 232 246 260 257 254 259 273 284 287 287 283 277 282 282 283 255 258 257 266 265 259 251 248 236 217 228 228 223 222 218 212
241 233 231 224 221 232 228 217 215 217 218 220 225 230 238 250 252 252 248 261 288 292 285 273 272 279 277 239 229 235 234 235 250 260 259 262 251 238 233 227 225 232 229 227
242 233 229 224 221 226 227 216 210 211 217 221 222 225 232 241 243 246 262 262 274 273 269 272 290 290 201 168 201 214 212 217 237 251 258 260 262 260 255 245 241 233 236 236
239 233 229 219 196 204 222 225 213 217 224 235 232 228 230 238 244 243 259 267 267 266 259 279 281 238 182 187 195 212 226 235 243 248 252 255 259 256 253 249 248 245 240 243
232 226 214 202 207 217 219 211 209 221 225 236 243 239 233 236 239 246 245 244 249 250 254 259 257 223 201 210 209 217 230 244 248 247 248 249 248 243 244 247 251 257 248 237
230 230 227 224 225 220 205 202 215 221 220 231 240 235 228 228 234 236 233 234 234 233 237 240 230 207 207 209 217 225 228 241 242 240 247 251 253 253 256 261 266 262 259 255
232 231 226 231 224 211 208 210 216 220 219 223 238 234 220 214 215 217 221 224 224 223 221 215 205 203 202 204 205 211 221 227 232 238 240 246 254 257 260 258 259 259 259 253